Katerina L — 3FQL2 — position and weather

sailwx.info

Track history (hours):
 
Tides and Currents Weather Stations Pressure Air Temp Water Temp Dewpoint Dewpoint Depression Visibility Wind Speed Wind Dir Waves Ship Positions

Katerina L

Last reported at 2014-Jul-28 12:18 UTC. Time now 2014-Jul-31 01:26 UTC.
Position N 35°50' E 015°36'.

Length 91 m; draft 5.4 m.

Type: Tanker. MMSI: 356460000.

Date/timePositionNaut miles runAvg speedWind from/ knotsBaromVisibWave heightAir tempDewpointWater temp
2014-Jul-28 12:18N 35°50' E 015°36'25 7.7
2014-Jul-28 09:07N 35°53' E 015°06'4 7.4
2014-Jul-28 08:33N 35°54' E 015°01'7 7.3
2014-Jul-28 07:33N 35°55' E 014°52'7 6.9
2014-Jul-28 06:33N 35°55' E 014°44'7 7.1
2014-Jul-28 05:33N 35°56' E 014°35'5 4.9
2014-Jul-28 04:32N 35°53' E 014°30'0 0.0
2014-Jul-28 03:34N 35°53' E 014°30'0 0.0
2014-Jul-28 02:22N 35°53' E 014°30'0 0.0
2014-Jul-28 01:22N 35°53' E 014°30'0 0.0
2014-Jul-28 00:31N 35°53' E 014°30'0 0.0
2014-Jul-27 23:34N 35°53' E 014°30'0 0.0
2014-Jul-27 22:34N 35°53' E 014°30'0 0.0
2014-Jul-27 21:34N 35°53' E 014°30'0 0.0
2014-Jul-27 20:31N 35°53' E 014°30'0 0.0
2014-Jul-27 17:31N 35°53' E 014°30'0 0.0
2014-Jul-27 16:28N 35°53' E 014°30'0 0.0
2014-Jul-27 15:22N 35°53' E 014°30'0 0.0
2014-Jul-27 14:34N 35°53' E 014°30'0 0.0
2014-Jul-27 13:16N 35°53' E 014°30'1 0.1
2014-Jul-27 04:15N 35°54' E 014°31'4 5.6
2014-Jul-27 03:33N 35°57' E 014°34'5 5.5
2014-Jul-27 02:33N 36°02' E 014°37'7 1.6
2014-Jul-26 22:17N 36°08' E 014°41'1 0.8
2014-Jul-26 21:33N 36°08' E 014°40'1 0.8
2014-Jul-26 20:33N 36°07' E 014°40'6 6.2
2014-Jul-26 19:33N 36°05' E 014°33'7 6.8
2014-Jul-26 18:33N 36°06' E 014°24'7 7.1
2014-Jul-26 17:33N 36°09' E 014°17'7 7.1
2014-Jul-26 16:33N 36°14' E 014°10'8 7.2
2014-Jul-26 15:26N 36°18' E 014°02'6 6.7
2014-Jul-26 14:33N 36°22' E 013°56'7 6.6
2014-Jul-26 13:33N 36°26' E 013°49'7 6.8
2014-Jul-26 12:33N 36°30' E 013°42'7 6.8
2014-Jul-26 11:33N 36°34' E 013°36'7 6.7
2014-Jul-26 10:33N 36°38' E 013°29'7 6.5
2014-Jul-26 09:33N 36°43' E 013°23'7 6.4
2014-Jul-26 08:32N 36°46' E 013°16'16 6.8
2014-Jul-26 06:09N 36°56' E 012°60'4 7.3
2014-Jul-26 05:33N 36°59' E 012°56'7 6.8
2014-Jul-26 04:33N 37°03' E 012°49'172 7.1
2014-Jul-25 04:20N 39°34' E 011°05'6 7.6
2014-Jul-25 03:33N 39°40' E 011°02'177 7.6
2014-Jul-24 04:17N 42°28' E 009°50'6 7.5
2014-Jul-24 03:33N 42°34' E 009°50'9 7.7
2014-Jul-24 02:24N 42°43' E 009°50'7 7.9
2014-Jul-24 01:33N 42°49' E 009°52'8 7.9
2014-Jul-24 00:34N 42°57' E 009°56'8 8.0
2014-Jul-23 23:33N 43°04' E 009°60'8 7.7
2014-Jul-23 22:33N 43°12' E 010°03'8 7.8
2014-Jul-23 21:34N 43°19' E 010°07'8 7.8
2014-Jul-23 20:33N 43°26' E 010°10'7 7.0
2014-Jul-23 19:34N 43°32' E 010°16'4 3.8
2014-Jul-23 18:31N 43°35' E 010°19'0 0.0
2014-Jul-23 17:28N 43°35' E 010°19'0 0.0
2014-Jul-23 16:25N 43°35' E 010°19'0 0.0
2014-Jul-23 15:31N 43°35' E 010°19'0 0.0
2014-Jul-23 14:31N 43°35' E 010°19'0 0.0
2014-Jul-23 13:31N 43°35' E 010°19'0 0.0
2014-Jul-23 12:10N 43°35' E 010°19'0 0.0
2014-Jul-23 11:31N 43°35' E 010°19'0 0.0
2014-Jul-23 10:28N 43°35' E 010°19'0 0.0
2014-Jul-23 09:31N 43°35' E 010°19'0 0.0
2014-Jul-23 08:31N 43°35' E 010°19'0 0.0
2014-Jul-23 07:31N 43°35' E 010°19'0 0.0
2014-Jul-23 06:28N 43°35' E 010°19'0 0.0
2014-Jul-23 05:25N 43°35' E 010°19'0 0.0
2014-Jul-23 04:28N 43°35' E 010°19'0 0.0
2014-Jul-23 03:31N 43°35' E 010°19'0 0.0
2014-Jul-23 02:28N 43°35' E 010°19'0 0.0
2014-Jul-23 01:28N 43°35' E 010°19'0 0.0
2014-Jul-23 00:31N 43°35' E 010°19'0 0.0
2014-Jul-22 23:31N 43°35' E 010°19'0 0.0
2014-Jul-22 22:31N 43°35' E 010°19'0 0.0
2014-Jul-22 21:31N 43°35' E 010°19'0 0.0
2014-Jul-22 20:31N 43°35' E 010°19'0 0.0
2014-Jul-22 19:31N 43°35' E 010°19'0 0.0
2014-Jul-22 18:31N 43°35' E 010°19'0 0.0
2014-Jul-22 17:31N 43°35' E 010°19'0 0.0
2014-Jul-22 16:22N 43°35' E 010°19'0 0.0
2014-Jul-22 15:22N 43°35' E 010°19'0 0.0
2014-Jul-22 14:31N 43°35' E 010°19'0 0.0
2014-Jul-22 13:25N 43°35' E 010°19'0 0.0
2014-Jul-22 12:31N 43°35' E 010°19'0 0.0
2014-Jul-22 11:28N 43°35' E 010°19'0 0.0
2014-Jul-22 10:25N 43°35' E 010°19'0 0.0
2014-Jul-22 09:31N 43°35' E 010°19'0 0.0
2014-Jul-22 08:31N 43°35' E 010°19'1 0.5
2014-Jul-22 07:33N 43°35' E 010°19'4 3.9
2014-Jul-22 06:33N 43°31' E 010°16'2 1.7
2014-Jul-22 05:31N 43°30' E 010°17'0 0.0
2014-Jul-22 04:33N 43°30' E 010°17'0 0.0
2014-Jul-22 03:33N 43°30' E 010°17'0 0.1
2014-Jul-22 02:33N 43°30' E 010°17'0 0.1
2014-Jul-22 01:33N 43°30' E 010°17'0 0.1
2014-Jul-22 00:33N 43°30' E 010°18'0 0.1
2014-Jul-21 23:32N 43°30' E 010°18'0 0.0
2014-Jul-21 22:32N 43°30' E 010°18'0 0.0
2014-Jul-21 21:29N 43°30' E 010°18'0 0.0
2014-Jul-21 20:32N 43°30' E 010°18'0 0.0
2014-Jul-21 20:17N 43°30' E 010°18'0 0.0
2014-Jul-21 19:32N 43°30' E 010°18'0 0.0
2014-Jul-21 18:32N 43°30' E 010°18'0 0.0
2014-Jul-21 17:32N 43°30' E 010°18'0 0.0
2014-Jul-21 16:32N 43°30' E 010°18'0 0.0
2014-Jul-21 15:32N 43°30' E 010°18'0 0.0
2014-Jul-21 14:29N 43°30' E 010°18'0 0.0
2014-Jul-21 13:32N 43°30' E 010°18'0 0.0
2014-Jul-21 12:32N 43°30' E 010°18'0 0.0
2014-Jul-21 11:32N 43°30' E 010°18'0 0.0
2014-Jul-21 10:29N 43°30' E 010°18'0 0.0
2014-Jul-21 09:32N 43°30' E 010°18'0 0.0
2014-Jul-21 08:29N 43°30' E 010°18'0 0.0
2014-Jul-21 07:32N 43°30' E 010°18'0 0.1
2014-Jul-21 06:32N 43°30' E 010°17'0 0.0
2014-Jul-21 05:26N 43°30' E 010°17'0 0.1
2014-Jul-21 04:29N 43°30' E 010°17'0 0.1
2014-Jul-21 03:32N 43°30' E 010°17'0 0.0
2014-Jul-21 02:32N 43°30' E 010°17'0 0.0
2014-Jul-21 01:32N 43°30' E 010°17'4 4.0
2014-Jul-21 00:33N 43°26' E 010°15'8 8.4
2014-Jul-20 23:33N 43°19' E 010°09'8 8.1
2014-Jul-20 22:33N 43°12' E 010°05'8 8.3
2014-Jul-20 21:33N 43°04' E 010°00'9 8.5
2014-Jul-20 20:30N 42°56' E 009°56'8 8.4
2014-Jul-20 19:33N 42°48' E 009°52'19 8.4
2014-Jul-20 17:21N 42°29' E 009°50'7 8.8
2014-Jul-20 16:32N 42°22' E 009°50'8 8.1
2014-Jul-20 15:31N 42°16' E 009°57'8 8.4
2014-Jul-20 14:33N 42°10' E 010°05'9 8.7
2014-Jul-20 13:33N 42°05' E 010°14'11 8.6
2014-Jul-20 12:15N 41°58' E 010°26'6 8.3
2014-Jul-20 11:33N 41°54' E 010°32'11 8.2
2014-Jul-20 10:15N 41°47' E 010°43'6 8.2
2014-Jul-20 09:32N 41°43' E 010°49'17 8.3
2014-Jul-20 07:33N 41°33' E 011°06'10 8.5
2014-Jul-20 06:22N 41°27' E 011°17'24 8.6
2014-Jul-20 03:33N 41°11' E 011°41'81 8.1
2014-Jul-19 17:33N 40°20' E 013°04'18 7.8
2014-Jul-19 15:16N 40°08' E 013°21'5 7.7
2014-Jul-19 14:33N 40°05' E 013°27'8 7.7
2014-Jul-19 13:33N 39°60' E 013°35'8 8.0
2014-Jul-19 12:33N 39°55' E 013°43'8 8.0
2014-Jul-19 11:33N 39°50' E 013°51'12 8.0
2014-Jul-19 10:07N 39°42' E 014°02'13 8.1
2014-Jul-19 08:33N 39°34' E 014°15'11 8.1
2014-Jul-19 07:10N 39°27' E 014°26'  
Track history (hours):
 
Tides and Currents Weather Stations Pressure Air Temp Water Temp Dewpoint Dewpoint Depression Visibility Wind Speed Wind Dir Waves Ship Positions

Katerina L

Last reported at 2014-Jul-28 12:18 UTC. Time now 2014-Jul-31 01:26 UTC.
Position N 35°50' E 015°36'.

Length 91 m; draft 5.4 m.

Type: Tanker. MMSI: 356460000.

Date/timePositionNaut miles runAvg speedWind from/ knotsBaromVisibWave heightAir tempDewpointWater temp
2014-Jul-28 12:18N 35°50' E 015°36'25 7.7
2014-Jul-28 09:07N 35°53' E 015°06'4 7.4
2014-Jul-28 08:33N 35°54' E 015°01'7 7.3
2014-Jul-28 07:33N 35°55' E 014°52'7 6.9
2014-Jul-28 06:33N 35°55' E 014°44'7 7.1
2014-Jul-28 05:33N 35°56' E 014°35'5 4.9
2014-Jul-28 04:32N 35°53' E 014°30'0 0.0
2014-Jul-28 03:34N 35°53' E 014°30'0 0.0
2014-Jul-28 02:22N 35°53' E 014°30'0 0.0
2014-Jul-28 01:22N 35°53' E 014°30'0 0.0
2014-Jul-28 00:31N 35°53' E 014°30'0 0.0
2014-Jul-27 23:34N 35°53' E 014°30'0 0.0
2014-Jul-27 22:34N 35°53' E 014°30'0 0.0
2014-Jul-27 21:34N 35°53' E 014°30'0 0.0
2014-Jul-27 20:31N 35°53' E 014°30'0 0.0
2014-Jul-27 17:31N 35°53' E 014°30'0 0.0
2014-Jul-27 16:28N 35°53' E 014°30'0 0.0
2014-Jul-27 15:22N 35°53' E 014°30'0 0.0
2014-Jul-27 14:34N 35°53' E 014°30'0 0.0
2014-Jul-27 13:16N 35°53' E 014°30'1 0.1
2014-Jul-27 04:15N 35°54' E 014°31'4 5.6
2014-Jul-27 03:33N 35°57' E 014°34'5 5.5
2014-Jul-27 02:33N 36°02' E 014°37'7 1.6
2014-Jul-26 22:17N 36°08' E 014°41'1 0.8
2014-Jul-26 21:33N 36°08' E 014°40'1 0.8
2014-Jul-26 20:33N 36°07' E 014°40'6 6.2
2014-Jul-26 19:33N 36°05' E 014°33'7 6.8
2014-Jul-26 18:33N 36°06' E 014°24'7 7.1
2014-Jul-26 17:33N 36°09' E 014°17'7 7.1
2014-Jul-26 16:33N 36°14' E 014°10'8 7.2
2014-Jul-26 15:26N 36°18' E 014°02'6 6.7
2014-Jul-26 14:33N 36°22' E 013°56'7 6.6
2014-Jul-26 13:33N 36°26' E 013°49'7 6.8
2014-Jul-26 12:33N 36°30' E 013°42'7 6.8
2014-Jul-26 11:33N 36°34' E 013°36'7 6.7
2014-Jul-26 10:33N 36°38' E 013°29'7 6.5
2014-Jul-26 09:33N 36°43' E 013°23'7 6.4
2014-Jul-26 08:32N 36°46' E 013°16'16 6.8
2014-Jul-26 06:09N 36°56' E 012°60'4 7.3
2014-Jul-26 05:33N 36°59' E 012°56'7 6.8
2014-Jul-26 04:33N 37°03' E 012°49'172 7.1
2014-Jul-25 04:20N 39°34' E 011°05'6 7.6
2014-Jul-25 03:33N 39°40' E 011°02'177 7.6
2014-Jul-24 04:17N 42°28' E 009°50'6 7.5
2014-Jul-24 03:33N 42°34' E 009°50'9 7.7
2014-Jul-24 02:24N 42°43' E 009°50'7 7.9
2014-Jul-24 01:33N 42°49' E 009°52'8 7.9
2014-Jul-24 00:34N 42°57' E 009°56'8 8.0
2014-Jul-23 23:33N 43°04' E 009°60'8 7.7
2014-Jul-23 22:33N 43°12' E 010°03'8 7.8
2014-Jul-23 21:34N 43°19' E 010°07'8 7.8
2014-Jul-23 20:33N 43°26' E 010°10'7 7.0
2014-Jul-23 19:34N 43°32' E 010°16'4 3.8
2014-Jul-23 18:31N 43°35' E 010°19'0 0.0
2014-Jul-23 17:28N 43°35' E 010°19'0 0.0
2014-Jul-23 16:25N 43°35' E 010°19'0 0.0
2014-Jul-23 15:31N 43°35' E 010°19'0 0.0
2014-Jul-23 14:31N 43°35' E 010°19'0 0.0
2014-Jul-23 13:31N 43°35' E 010°19'0 0.0
2014-Jul-23 12:10N 43°35' E 010°19'0 0.0
2014-Jul-23 11:31N 43°35' E 010°19'0 0.0
2014-Jul-23 10:28N 43°35' E 010°19'0 0.0
2014-Jul-23 09:31N 43°35' E 010°19'0 0.0
2014-Jul-23 08:31N 43°35' E 010°19'0 0.0
2014-Jul-23 07:31N 43°35' E 010°19'0 0.0
2014-Jul-23 06:28N 43°35' E 010°19'0 0.0
2014-Jul-23 05:25N 43°35' E 010°19'0 0.0
2014-Jul-23 04:28N 43°35' E 010°19'0 0.0
2014-Jul-23 03:31N 43°35' E 010°19'0 0.0
2014-Jul-23 02:28N 43°35' E 010°19'0 0.0
2014-Jul-23 01:28N 43°35' E 010°19'0 0.0
2014-Jul-23 00:31N 43°35' E 010°19'0 0.0
2014-Jul-22 23:31N 43°35' E 010°19'0 0.0
2014-Jul-22 22:31N 43°35' E 010°19'0 0.0
2014-Jul-22 21:31N 43°35' E 010°19'0 0.0
2014-Jul-22 20:31N 43°35' E 010°19'0 0.0
2014-Jul-22 19:31N 43°35' E 010°19'0 0.0
2014-Jul-22 18:31N 43°35' E 010°19'0 0.0
2014-Jul-22 17:31N 43°35' E 010°19'0 0.0
2014-Jul-22 16:22N 43°35' E 010°19'0 0.0
2014-Jul-22 15:22N 43°35' E 010°19'0 0.0
2014-Jul-22 14:31N 43°35' E 010°19'0 0.0
2014-Jul-22 13:25N 43°35' E 010°19'0 0.0
2014-Jul-22 12:31N 43°35' E 010°19'0 0.0
2014-Jul-22 11:28N 43°35' E 010°19'0 0.0
2014-Jul-22 10:25N 43°35' E 010°19'0 0.0
2014-Jul-22 09:31N 43°35' E 010°19'0 0.0
2014-Jul-22 08:31N 43°35' E 010°19'1 0.5
2014-Jul-22 07:33N 43°35' E 010°19'4 3.9
2014-Jul-22 06:33N 43°31' E 010°16'2 1.7
2014-Jul-22 05:31N 43°30' E 010°17'0 0.0
2014-Jul-22 04:33N 43°30' E 010°17'0 0.0
2014-Jul-22 03:33N 43°30' E 010°17'0 0.1
2014-Jul-22 02:33N 43°30' E 010°17'0 0.1
2014-Jul-22 01:33N 43°30' E 010°17'0 0.1
2014-Jul-22 00:33N 43°30' E 010°18'0 0.1
2014-Jul-21 23:32N 43°30' E 010°18'0 0.0
2014-Jul-21 22:32N 43°30' E 010°18'0 0.0
2014-Jul-21 21:29N 43°30' E 010°18'0 0.0
2014-Jul-21 20:32N 43°30' E 010°18'0 0.0
2014-Jul-21 20:17N 43°30' E 010°18'0 0.0
2014-Jul-21 19:32N 43°30' E 010°18'0 0.0
2014-Jul-21 18:32N 43°30' E 010°18'0 0.0
2014-Jul-21 17:32N 43°30' E 010°18'0 0.0
2014-Jul-21 16:32N 43°30' E 010°18'0 0.0
2014-Jul-21 15:32N 43°30' E 010°18'0 0.0
2014-Jul-21 14:29N 43°30' E 010°18'0 0.0
2014-Jul-21 13:32N 43°30' E 010°18'0 0.0
2014-Jul-21 12:32N 43°30' E 010°18'0 0.0
2014-Jul-21 11:32N 43°30' E 010°18'0 0.0
2014-Jul-21 10:29N 43°30' E 010°18'0 0.0
2014-Jul-21 09:32N 43°30' E 010°18'0 0.0
2014-Jul-21 08:29N 43°30' E 010°18'0 0.0
2014-Jul-21 07:32N 43°30' E 010°18'0 0.1
2014-Jul-21 06:32N 43°30' E 010°17'0 0.0
2014-Jul-21 05:26N 43°30' E 010°17'0 0.1
2014-Jul-21 04:29N 43°30' E 010°17'0 0.1
2014-Jul-21 03:32N 43°30' E 010°17'0 0.0
2014-Jul-21 02:32N 43°30' E 010°17'0 0.0
2014-Jul-21 01:32N 43°30' E 010°17'4 4.0
2014-Jul-21 00:33N 43°26' E 010°15'8 8.4
2014-Jul-20 23:33N 43°19' E 010°09'8 8.1
2014-Jul-20 22:33N 43°12' E 010°05'8 8.3
2014-Jul-20 21:33N 43°04' E 010°00'9 8.5
2014-Jul-20 20:30N 42°56' E 009°56'8 8.4
2014-Jul-20 19:33N 42°48' E 009°52'19 8.4
2014-Jul-20 17:21N 42°29' E 009°50'7 8.8
2014-Jul-20 16:32N 42°22' E 009°50'8 8.1
2014-Jul-20 15:31N 42°16' E 009°57'8 8.4
2014-Jul-20 14:33N 42°10' E 010°05'9 8.7
2014-Jul-20 13:33N 42°05' E 010°14'11 8.6
2014-Jul-20 12:15N 41°58' E 010°26'6 8.3
2014-Jul-20 11:33N 41°54' E 010°32'11 8.2
2014-Jul-20 10:15N 41°47' E 010°43'6 8.2
2014-Jul-20 09:32N 41°43' E 010°49'17 8.3
2014-Jul-20 07:33N 41°33' E 011°06'10 8.5
2014-Jul-20 06:22N 41°27' E 011°17'24 8.6
2014-Jul-20 03:33N 41°11' E 011°41'81 8.1
2014-Jul-19 17:33N 40°20' E 013°04'18 7.8
2014-Jul-19 15:16N 40°08' E 013°21'5 7.7
2014-Jul-19 14:33N 40°05' E 013°27'8 7.7
2014-Jul-19 13:33N 39°60' E 013°35'8 8.0
2014-Jul-19 12:33N 39°55' E 013°43'8 8.0
2014-Jul-19 11:33N 39°50' E 013°51'12 8.0
2014-Jul-19 10:07N 39°42' E 014°02'13 8.1
2014-Jul-19 08:33N 39°34' E 014°15'11 8.1
2014-Jul-19 07:10N 39°27' E 014°26'  

Dump ship's entire track history